QPF
0.05 0.07 0.06 0.05 0.03 0.01 0.02 0.02 0.03 0.03 0.03 0.02 0.01 0.00 0.00 0.01 0.01 0.01 0.02 0.01 0.00 0.01 0.01 0.01 0.01 0.01 0.01 0.01 0.02 0.02 0.02 0.02 0.02 0.01 0.01 0.01 0.01 0.01 0.01 0.01 0.01 0.01 0.00
0.07 0.06 0.05 0.05 0.04 0.01 0.02 0.02 0.02 0.02 0.03 0.03 0.02 0.01 0.01 0.00 0.01 0.01 0.03 0.02 0.00 0.00 0.00 0.01 0.01 0.00 0.00 0.00 0.01 0.02 0.02 0.02 0.02 0.01 0.01 0.01 0.01 0.01 0.01 0.01 0.01 0.01 0.00
0.07 0.07 0.07 0.05 0.04 0.02 0.03 0.03 0.03 0.02 0.03 0.05 0.05 0.03 0.02 0.01 0.01 0.01 0.02 0.03 0.02 0.01 0.00 0.01 0.01 0.00 0.01 0.01 0.01 0.01 0.02 0.01 0.01 0.01 0.01 0.01 0.01 0.00 0.00 0.01 0.01 0.00 0.00
0.06 0.07 0.06 0.05 0.04 0.03 0.05 0.05 0.04 0.04 0.05 0.05 0.05 0.05 0.03 0.02 0.02 0.01 0.02 0.02 0.04 0.03 0.02 0.01 0.01 0.01 0.01 0.01 0.00 0.01 0.02 0.02 0.01 0.01 0.01 0.01 0.01 0.01 0.01 0.01 0.01 0.00 0.00
0.04 0.05 0.05 0.06 0.04 0.04 0.04 0.04 0.06 0.08 0.08 0.06 0.04 0.05 0.03 0.03 0.02 0.01 0.02 0.01 0.02 0.02 0.03 0.01 0.00 0.00 0.00 0.00 0.01 0.02 0.04 0.04 0.02 0.01 0.01 0.01 0.01 0.01 0.01 0.01 0.00 0.00 0.00
0.02 0.04 0.04 0.05 0.05 0.05 0.05 0.05 0.09 0.08 0.08 0.06 0.05 0.07 0.05 0.04 0.02 0.01 0.01 0.01 0.01 0.01 0.03 0.04 0.03 0.01 0.01 0.01 0.03 0.04 0.05 0.05 0.04 0.03 0.01 0.01 0.02 0.02 0.01 0.00 0.00 0.00 0.00
0.03 0.05 0.06 0.08 0.05 0.05 0.05 0.06 0.09 0.09 0.07 0.05 0.08 0.09 0.06 0.05 0.03 0.03 0.02 0.01 0.00 0.00 0.02 0.04 0.04 0.05 0.04 0.01 0.02 0.02 0.03 0.04 0.04 0.04 0.04 0.03 0.03 0.03 0.02 0.01 0.00 0.00 0.00
0.04 0.04 0.04 0.05 0.05 0.07 0.07 0.08 0.10 0.09 0.06 0.06 0.07 0.13 0.15 0.13 0.07 0.02 0.02 0.01 0.01 0.02 0.01 0.01 0.03 0.05 0.04 0.05 0.04 0.02 0.02 0.03 0.04 0.05 0.06 0.05 0.04 0.04 0.03 0.01 0.01 0.00 0.01
0.05 0.06 0.06 0.05 0.08 0.07 0.09 0.09 0.09 0.10 0.09 0.07 0.05 0.10 0.16 0.20 0.14 0.05 0.02 0.02 0.03 0.05 0.03 0.01 0.02 0.03 0.03 0.05 0.07 0.05 0.03 0.02 0.02 0.04 0.05 0.05 0.03 0.02 0.02 0.02 0.02 0.02 0.02
0.08 0.08 0.07 0.07 0.08 0.07 0.11 0.08 0.08 0.11 0.10 0.08 0.08 0.08 0.08 0.13 0.14 0.13 0.12 0.08 0.05 0.04 0.02 0.02 0.01 0.02 0.03 0.03 0.04 0.04 0.03 0.02 0.01 0.02 0.03 0.04 0.03 0.02 0.02 0.03 0.03 0.03 0.03
0.08 0.08 0.08 0.08 0.09 0.09 0.10 0.09 0.11 0.09 0.10 0.10 0.10 0.10 0.09 0.08 0.07 0.10 0.13 0.11 0.09 0.07 0.04 0.03 0.03 0.03 0.03 0.03 0.03 0.02 0.02 0.02 0.01 0.01 0.02 0.03 0.04 0.03 0.03 0.03 0.03 0.04 0.05
0.09 0.08 0.06 0.07 0.09 0.11 0.11 0.10 0.09 0.07 0.09 0.10 0.09 0.08 0.10 0.10 0.07 0.07 0.08 0.09 0.08 0.06 0.05 0.04 0.04 0.03 0.03 0.04 0.04 0.02 0.02 0.02 0.01 0.01 0.01 0.01 0.01 0.02 0.02 0.03 0.04 0.05 0.06
0.10 0.08 0.06 0.07 0.10 0.12 0.11 0.10 0.10 0.09 0.10 0.11 0.09 0.07 0.07 0.06 0.06 0.06 0.08 0.08 0.07 0.04 0.04 0.03 0.03 0.03 0.03 0.04 0.05 0.03 0.02 0.02 0.01 0.01 0.01 0.01 0.01 0.01 0.01 0.02 0.03 0.05 0.07
0.09 0.08 0.08 0.06 0.08 0.09 0.10 0.12 0.10 0.10 0.12 0.12 0.10 0.10 0.08 0.06 0.06 0.06 0.07 0.09 0.11 0.09 0.07 0.06 0.06 0.06 0.05 0.05 0.06 0.05 0.02 0.04 0.03 0.03 0.03 0.02 0.01 0.01 0.02 0.01 0.02 0.03 0.04
0.10 0.07 0.07 0.06 0.06 0.07 0.09 0.11 0.11 0.11 0.12 0.11 0.10 0.11 0.10 0.07 0.08 0.08 0.08 0.11 0.15 0.14 0.10 0.07 0.06 0.06 0.06 0.07 0.08 0.06 0.07 0.07 0.05 0.04 0.04 0.03 0.03 0.02 0.02 0.03 0.02 0.02 0.02
0.12 0.11 0.10 0.07 0.08 0.09 0.10 0.12 0.11 0.12 0.13 0.11 0.10 0.11 0.11 0.09 0.09 0.10 0.10 0.11 0.13 0.14 0.11 0.07 0.07 0.05 0.05 0.06 0.07 0.07 0.06 0.06 0.04 0.04 0.04 0.04 0.03 0.03 0.02 0.02 0.01 0.01 0.01
0.09 0.11 0.11 0.09 0.09 0.09 0.10 0.11 0.10 0.12 0.13 0.13 0.11 0.10 0.10 0.10 0.10 0.09 0.10 0.11 0.12 0.13 0.12 0.09 0.10 0.08 0.08 0.08 0.09 0.07 0.04 0.05 0.06 0.06 0.06 0.05 0.04 0.03 0.02 0.01 0.01 0.01 0.02
0.06 0.07 0.09 0.08 0.06 0.06 0.09 0.11 0.10 0.11 0.13 0.14 0.12 0.10 0.08 0.08 0.10 0.09 0.11 0.12 0.11 0.13 0.14 0.12 0.11 0.11 0.12 0.10 0.10 0.10 0.08 0.07 0.08 0.10 0.09 0.07 0.06 0.05 0.03 0.02 0.02 0.02 0.03
0.07 0.09 0.11 0.08 0.07 0.07 0.09 0.11 0.12 0.12 0.13 0.15 0.14 0.12 0.09 0.09 0.09 0.09 0.09 0.11 0.10 0.09 0.12 0.13 0.13 0.12 0.11 0.12 0.13 0.13 0.10 0.11 0.12 0.13 0.11 0.08 0.07 0.06 0.04 0.03 0.03 0.03 0.03
0.06 0.09 0.09 0.09 0.09 0.09 0.10 0.10 0.11 0.12 0.13 0.14 0.13 0.12 0.10 0.09 0.08 0.09 0.09 0.09 0.09 0.11 0.15 0.16 0.15 0.14 0.15 0.14 0.15 0.17 0.16 0.14 0.14 0.12 0.09 0.08 0.06 0.05 0.04 0.03 0.03 0.03 0.04
0.05 0.07 0.09 0.10 0.09 0.07 0.07 0.09 0.12 0.15 0.18 0.19 0.17 0.14 0.12 0.09 0.07 0.06 0.05 0.07 0.10 0.12 0.14 0.14 0.14 0.13 0.13 0.14 0.13 0.12 0.12 0.12 0.11 0.10 0.09 0.07 0.06 0.05 0.05 0.05 0.05 0.05 0.05
0.05 0.06 0.06 0.06 0.06 0.05 0.07 0.06 0.08 0.13 0.15 0.15 0.15 0.13 0.11 0.09 0.08 0.08 0.09 0.10 0.11 0.12 0.13 0.12 0.11 0.11 0.10 0.10 0.10 0.09 0.10 0.10 0.10 0.10 0.10 0.10 0.10 0.10 0.09 0.08 0.08 0.08 0.08
0.05 0.06 0.06 0.06 0.05 0.06 0.07 0.05 0.05 0.05 0.06 0.07 0.07 0.08 0.09 0.09 0.12 0.12 0.13 0.13 0.11 0.09 0.08 0.07 0.07 0.08 0.07 0.06 0.08 0.08 0.10 0.11 0.12 0.11 0.11 0.11 0.11 0.09 0.08 0.08 0.09 0.09 0.10
0.07 0.07 0.06 0.06 0.06 0.07 0.07 0.04 0.04 0.06 0.07 0.06 0.06 0.06 0.06 0.09 0.10 0.11 0.08 0.06 0.05 0.04 0.04 0.04 0.04 0.04 0.04 0.04 0.04 0.05 0.07 0.08 0.09 0.10 0.11 0.12 0.13 0.11 0.09 0.08 0.09 0.08 0.08
0.07 0.08 0.08 0.07 0.07 0.06 0.05 0.03 0.02 0.03 0.03 0.03 0.03 0.04 0.05 0.04 0.06 0.07 0.06 0.05 0.04 0.03 0.03 0.03 0.02 0.02 0.02 0.02 0.02 0.04 0.05 0.08 0.09 0.10 0.10 0.13 0.14 0.14 0.14 0.13 0.11 0.10 0.08
0.05 0.06 0.06 0.05 0.04 0.04 0.04 0.02 0.02 0.01 0.02 0.02 0.02 0.02 0.02 0.03 0.04 0.05 0.04 0.04 0.03 0.03 0.03 0.03 0.02 0.02 0.02 0.02 0.02 0.02 0.04 0.06 0.07 0.08 0.09 0.10 0.12 0.12 0.13 0.13 0.10 0.08 0.06
MSLP
1016.82 1016.94 1017.04 1017.14 1017.26 1017.39 1017.54 1017.69 1017.80 1017.89 1017.92 1017.93 1017.94 1018.00 1018.13 1018.36 1018.70 1019.15 1019.64 1020.15 1020.61 1021.00 1021.28 1021.46 1021.57 1021.62 1021.67 1021.73 1021.82 1021.96 1022.12 1022.29 1022.47 1022.62 1022.76 1022.87 1022.97 1023.07 1023.16 1023.25 1023.33 1023.41 1023.48
1016.89 1016.98 1017.05 1017.13 1017.22 1017.33 1017.47 1017.61 1017.75 1017.87 1017.97 1018.05 1018.13 1018.24 1018.40 1018.62 1018.93 1019.30 1019.71 1020.14 1020.55 1020.91 1021.20 1021.43 1021.60 1021.73 1021.84 1021.95 1022.05 1022.17 1022.29 1022.40 1022.52 1022.63 1022.74 1022.85 1022.96 1023.07 1023.18 1023.29 1023.39 1023.47 1023.54
1017.01 1017.08 1017.13 1017.19 1017.27 1017.38 1017.51 1017.66 1017.83 1017.99 1018.14 1018.28 1018.41 1018.56 1018.72 1018.92 1019.15 1019.42 1019.73 1020.04 1020.37 1020.68 1020.97 1021.23 1021.47 1021.68 1021.87 1022.04 1022.18 1022.30 1022.39 1022.48 1022.55 1022.63 1022.71 1022.82 1022.94 1023.07 1023.20 1023.33 1023.44 1023.52 1023.59
1017.15 1017.21 1017.27 1017.33 1017.41 1017.52 1017.66 1017.82 1018.00 1018.19 1018.38 1018.56 1018.73 1018.89 1019.05 1019.19 1019.34 1019.50 1019.67 1019.87 1020.08 1020.32 1020.59 1020.87 1021.16 1021.45 1021.72 1021.95 1022.15 1022.29 1022.40 1022.47 1022.52 1022.58 1022.66 1022.76 1022.89 1023.04 1023.20 1023.34 1023.46 1023.54 1023.60
1017.26 1017.34 1017.42 1017.51 1017.61 1017.72 1017.86 1018.02 1018.21 1018.41 1018.62 1018.82 1019.02 1019.18 1019.32 1019.42 1019.48 1019.53 1019.58 1019.64 1019.74 1019.90 1020.12 1020.39 1020.71 1021.05 1021.38 1021.69 1021.94 1022.13 1022.26 1022.34 1022.40 1022.46 1022.55 1022.66 1022.80 1022.96 1023.12 1023.27 1023.39 1023.47 1023.51
1017.30 1017.42 1017.54 1017.67 1017.80 1017.93 1018.07 1018.22 1018.39 1018.58 1018.79 1019.01 1019.21 1019.38 1019.50 1019.56 1019.57 1019.53 1019.47 1019.42 1019.41 1019.47 1019.62 1019.85 1020.17 1020.53 1020.91 1021.26 1021.56 1021.80 1021.97 1022.09 1022.17 1022.25 1022.34 1022.46 1022.61 1022.78 1022.94 1023.09 1023.19 1023.26 1023.28
1017.26 1017.43 1017.61 1017.78 1017.94 1018.09 1018.22 1018.36 1018.50 1018.67 1018.86 1019.07 1019.27 1019.44 1019.57 1019.62 1019.60 1019.51 1019.38 1019.24 1019.13 1019.10 1019.17 1019.34 1019.62 1019.96 1020.35 1020.72 1021.06 1021.34 1021.56 1021.71 1021.83 1021.93 1022.05 1022.17 1022.32 1022.48 1022.63 1022.75 1022.84 1022.88 1022.88
1017.13 1017.37 1017.61 1017.83 1018.03 1018.18 1018.31 1018.41 1018.52 1018.65 1018.81 1019.00 1019.20 1019.39 1019.54 1019.62 1019.61 1019.51 1019.35 1019.16 1018.98 1018.86 1018.84 1018.93 1019.14 1019.43 1019.79 1020.16 1020.51 1020.82 1021.07 1021.26 1021.41 1021.54 1021.67 1021.80 1021.94 1022.07 1022.19 1022.29 1022.34 1022.36 1022.34
1016.96 1017.25 1017.55 1017.82 1018.04 1018.20 1018.31 1018.38 1018.44 1018.53 1018.66 1018.83 1019.04 1019.26 1019.45 1019.58 1019.61 1019.55 1019.39 1019.18 1018.96 1018.78 1018.67 1018.68 1018.79 1019.01 1019.31 1019.65 1019.99 1020.31 1020.58 1020.81 1020.99 1021.14 1021.27 1021.39 1021.51 1021.61 1021.69 1021.74 1021.76 1021.75 1021.72
1016.78 1017.12 1017.46 1017.76 1018.00 1018.16 1018.25 1018.29 1018.31 1018.35 1018.45 1018.61 1018.83 1019.08 1019.33 1019.52 1019.63 1019.62 1019.51 1019.32 1019.09 1018.86 1018.69 1018.60 1018.63 1018.77 1018.99 1019.28 1019.60 1019.91 1020.19 1020.44 1020.64 1020.80 1020.94 1021.04 1021.12 1021.17 1021.20 1021.20 1021.18 1021.15 1021.12
1016.62 1016.99 1017.35 1017.68 1017.93 1018.08 1018.15 1018.16 1018.15 1018.16 1018.23 1018.39 1018.62 1018.91 1019.21 1019.47 1019.66 1019.73 1019.68 1019.53 1019.31 1019.07 1018.85 1018.71 1018.66 1018.72 1018.88 1019.12 1019.40 1019.70 1019.99 1020.25 1020.46 1020.63 1020.75 1020.82 1020.86 1020.86 1020.84 1020.79 1020.73 1020.68 1020.65
1016.49 1016.87 1017.24 1017.57 1017.82 1017.97 1018.04 1018.04 1018.01 1018.00 1018.07 1018.22 1018.47 1018.78 1019.13 1019.46 1019.71 1019.86 1019.88 1019.78 1019.60 1019.36 1019.14 1018.96 1018.87 1018.88 1018.99 1019.19 1019.45 1019.74 1020.03 1020.30 1020.52 1020.68 1020.78 1020.83 1020.83 1020.78 1020.70 1020.61 1020.52 1020.45 1020.41
1016.39 1016.76 1017.12 1017.45 1017.69 1017.85 1017.92 1017.93 1017.91 1017.91 1017.98 1018.14 1018.40 1018.74 1019.11 1019.48 1019.78 1019.99 1020.07 1020.03 1019.89 1019.70 1019.50 1019.32 1019.23 1019.23 1019.32 1019.51 1019.77 1020.05 1020.35 1020.62 1020.84 1021.00 1021.08 1021.10 1021.06 1020.97 1020.85 1020.72 1020.60 1020.52 1020.48
1016.30 1016.64 1016.98 1017.30 1017.55 1017.72 1017.82 1017.86 1017.87 1017.91 1018.00 1018.18 1018.44 1018.79 1019.17 1019.55 1019.88 1020.12 1020.24 1020.26 1020.18 1020.04 1019.89 1019.76 1019.70 1019.73 1019.85 1020.05 1020.32 1020.62 1020.92 1021.19 1021.41 1021.56 1021.64 1021.64 1021.57 1021.45 1021.30 1021.14 1021.00 1020.91 1020.86
1016.19 1016.50 1016.83 1017.13 1017.40 1017.60 1017.74 1017.84 1017.91 1018.00 1018.14 1018.34 1018.62 1018.95 1019.33 1019.69 1020.01 1020.26 1020.41 1020.46 1020.44 1020.37 1020.30 1020.25 1020.25 1020.34 1020.51 1020.75 1021.05 1021.36 1021.68 1021.95 1022.17 1022.32 1022.38 1022.37 1022.28 1022.15 1021.99 1021.83 1021.68 1021.57 1021.52
1016.07 1016.36 1016.67 1016.98 1017.27 1017.52 1017.72 1017.90 1018.05 1018.21 1018.40 1018.64 1018.92 1019.25 1019.59 1019.91 1020.20 1020.43 1020.58 1020.66 1020.69 1020.69 1020.70 1020.74 1020.84 1021.01 1021.24 1021.54 1021.87 1022.20 1022.52 1022.80 1023.01 1023.15 1023.20 1023.19 1023.10 1022.98 1022.83 1022.67 1022.53 1022.43 1022.37
1015.99 1016.27 1016.58 1016.90 1017.22 1017.52 1017.80 1018.06 1018.30 1018.54 1018.80 1019.07 1019.37 1019.67 1019.96 1020.24 1020.47 1020.66 1020.79 1020.88 1020.94 1021.01 1021.10 1021.23 1021.42 1021.67 1021.98 1022.32 1022.68 1023.03 1023.34 1023.61 1023.80 1023.93 1023.98 1023.96 1023.90 1023.79 1023.67 1023.54 1023.43 1023.34 1023.29
1015.99 1016.28 1016.60 1016.94 1017.30 1017.66 1018.01 1018.34 1018.67 1018.99 1019.31 1019.62 1019.92 1020.20 1020.45 1020.66 1020.83 1020.96 1021.05 1021.13 1021.22 1021.32 1021.48 1021.69 1021.96 1022.28 1022.64 1023.02 1023.39 1023.73 1024.03 1024.27 1024.44 1024.55 1024.59 1024.58 1024.54 1024.47 1024.39 1024.31 1024.24 1024.18 1024.14
1016.15 1016.46 1016.80 1017.16 1017.55 1017.95 1018.36 1018.76 1019.16 1019.54 1019.91 1020.24 1020.54 1020.80 1021.00 1021.15 1021.26 1021.32 1021.37 1021.43 1021.51 1021.65 1021.84 1022.10 1022.42 1022.79 1023.18 1023.57 1023.94 1024.26 1024.52 1024.72 1024.85 1024.93 1024.97 1024.97 1024.96 1024.93 1024.90 1024.88 1024.86 1024.84 1024.83
1016.51 1016.84 1017.20 1017.59 1018.00 1018.42 1018.86 1019.30 1019.74 1020.16 1020.55 1020.90 1021.20 1021.43 1021.59 1021.69 1021.73 1021.74 1021.74 1021.76 1021.83 1021.97 1022.18 1022.46 1022.81 1023.19 1023.58 1023.95 1024.29 1024.57 1024.78 1024.93 1025.02 1025.08 1025.10 1025.11 1025.12 1025.14 1025.17 1025.20 1025.24 1025.27 1025.29
1017.06 1017.43 1017.81 1018.20 1018.61 1019.04 1019.47 1019.91 1020.36 1020.79 1021.18 1021.53 1021.82 1022.03 1022.16 1022.21 1022.21 1022.17 1022.13 1022.12 1022.16 1022.28 1022.49 1022.76 1023.10 1023.47 1023.83 1024.17 1024.46 1024.69 1024.85 1024.94 1024.99 1025.01 1025.02 1025.04 1025.08 1025.13 1025.21 1025.29 1025.38 1025.46 1025.52
1017.77 1018.17 1018.57 1018.96 1019.34 1019.74 1020.14 1020.55 1020.97 1021.37 1021.75 1022.09 1022.36 1022.55 1022.66 1022.68 1022.65 1022.58 1022.51 1022.47 1022.49 1022.58 1022.76 1023.01 1023.31 1023.64 1023.97 1024.26 1024.50 1024.67 1024.77 1024.82 1024.83 1024.82 1024.82 1024.84 1024.89 1024.97 1025.08 1025.20 1025.33 1025.44 1025.53
1018.57 1019.00 1019.40 1019.77 1020.11 1020.45 1020.80 1021.15 1021.51 1021.87 1022.22 1022.53 1022.78 1022.96 1023.06 1023.08 1023.03 1022.95 1022.86 1022.80 1022.79 1022.85 1023.00 1023.21 1023.47 1023.76 1024.03 1024.27 1024.46 1024.58 1024.64 1024.65 1024.62 1024.60 1024.58 1024.60 1024.65 1024.74 1024.86 1025.01 1025.15 1025.28 1025.38
1019.36 1019.81 1020.20 1020.54 1020.84 1021.11 1021.38 1021.66 1021.95 1022.26 1022.56 1022.84 1023.08 1023.25 1023.35 1023.38 1023.34 1023.26 1023.17 1023.10 1023.07 1023.11 1023.22 1023.38 1023.60 1023.84 1024.06 1024.26 1024.40 1024.48 1024.51 1024.50 1024.46 1024.42 1024.39 1024.40 1024.45 1024.54 1024.65 1024.78 1024.92 1025.04 1025.13
1020.07 1020.52 1020.90 1021.20 1021.45 1021.66 1021.86 1022.06 1022.29 1022.53 1022.79 1023.04 1023.26 1023.44 1023.55 1023.60 1023.58 1023.52 1023.44 1023.37 1023.33 1023.35 1023.42 1023.55 1023.73 1023.92 1024.10 1024.26 1024.37 1024.43 1024.45 1024.42 1024.38 1024.33 1024.30 1024.30 1024.34 1024.40 1024.49 1024.59 1024.69 1024.78 1024.85
1020.63 1021.08 1021.45 1021.72 1021.92 1022.08 1022.22 1022.36 1022.53 1022.73 1022.94 1023.17 1023.39 1023.57 1023.70 1023.76 1023.77 1023.74 1023.68 1023.61 1023.57 1023.58 1023.63 1023.72 1023.86 1024.01 1024.16 1024.29 1024.39 1024.44 1024.45 1024.43 1024.39 1024.35 1024.32 1024.31 1024.32 1024.36 1024.41 1024.47 1024.52 1024.56 1024.59
Thickness
5753 5752 5751 5751 5752 5751 5750 5749 5749 5748 5748 5748 5748 5748 5747 5745 5743 5739 5734 5732 5730 5729 5727 5726 5724 5723 5721 5719 5718 5716 5715 5714 5713 5711 5710 5710 5709 5708 5707 5706 5705 5705 5704
5753 5752 5751 5751 5751 5752 5751 5750 5749 5749 5748 5747 5747 5747 5746 5745 5743 5740 5735 5732 5730 5729 5728 5726 5725 5723 5721 5720 5718 5717 5715 5714 5713 5711 5710 5709 5708 5708 5707 5706 5705 5704 5703
5753 5752 5752 5751 5751 5751 5750 5750 5749 5749 5748 5747 5747 5747 5746 5745 5743 5741 5737 5734 5732 5730 5728 5727 5725 5724 5722 5721 5719 5717 5716 5714 5713 5712 5710 5709 5708 5707 5707 5706 5705 5704 5703
5752 5751 5751 5751 5751 5751 5750 5749 5749 5748 5746 5746 5745 5746 5746 5745 5744 5742 5740 5738 5735 5733 5730 5728 5727 5725 5723 5722 5720 5718 5717 5715 5714 5712 5711 5709 5708 5708 5707 5705 5705 5704 5703
5752 5751 5751 5751 5751 5751 5750 5750 5749 5747 5745 5744 5745 5745 5745 5745 5745 5744 5742 5741 5739 5737 5734 5730 5728 5727 5725 5723 5722 5720 5718 5716 5715 5713 5712 5711 5709 5708 5707 5706 5705 5704 5703
5752 5752 5752 5751 5751 5750 5750 5749 5747 5747 5746 5745 5746 5746 5744 5745 5746 5746 5745 5744 5742 5740 5737 5734 5731 5728 5727 5725 5724 5722 5720 5718 5717 5715 5713 5712 5711 5709 5708 5707 5706 5704 5703
5753 5752 5752 5751 5750 5750 5750 5749 5747 5746 5745 5746 5743 5740 5743 5746 5747 5747 5746 5746 5745 5743 5741 5737 5734 5732 5730 5728 5726 5724 5722 5721 5719 5717 5715 5713 5712 5710 5709 5708 5706 5705 5703
5753 5753 5751 5751 5751 5749 5749 5748 5747 5744 5745 5747 5741 5735 5732 5735 5743 5749 5747 5746 5746 5744 5742 5740 5738 5736 5733 5730 5728 5726 5724 5722 5721 5719 5717 5715 5714 5712 5710 5709 5707 5705 5704
5753 5753 5752 5751 5751 5750 5748 5747 5747 5744 5742 5745 5746 5739 5729 5726 5734 5743 5746 5747 5746 5745 5744 5743 5741 5738 5736 5733 5731 5728 5726 5724 5722 5720 5719 5717 5715 5713 5711 5710 5708 5706 5704
5754 5753 5753 5752 5752 5751 5749 5748 5749 5747 5744 5742 5745 5746 5743 5739 5731 5730 5738 5743 5745 5745 5745 5744 5743 5741 5738 5736 5733 5731 5729 5726 5724 5722 5720 5718 5716 5714 5712 5710 5709 5707 5705
5754 5753 5753 5752 5751 5750 5750 5749 5749 5747 5746 5743 5742 5742 5742 5741 5739 5731 5728 5734 5740 5743 5744 5744 5743 5742 5739 5737 5735 5733 5730 5728 5725 5723 5720 5718 5716 5714 5713 5711 5709 5707 5705
5753 5753 5753 5752 5751 5750 5749 5749 5748 5747 5745 5745 5744 5743 5740 5737 5735 5734 5730 5731 5732 5738 5743 5744 5743 5742 5740 5737 5735 5734 5731 5728 5725 5722 5720 5718 5716 5714 5712 5710 5708 5707 5705
5753 5754 5754 5753 5751 5750 5749 5748 5747 5745 5745 5743 5742 5742 5741 5741 5740 5737 5732 5730 5731 5736 5739 5741 5741 5740 5739 5737 5734 5732 5730 5726 5723 5721 5719 5716 5714 5712 5710 5708 5707 5705 5704
5755 5755 5754 5752 5751 5749 5749 5747 5746 5745 5744 5742 5742 5741 5740 5740 5741 5738 5735 5730 5725 5728 5731 5733 5737 5737 5735 5734 5731 5729 5726 5723 5720 5718 5715 5713 5711 5709 5707 5705 5703 5702 5700
5756 5755 5753 5751 5750 5748 5747 5746 5744 5743 5742 5740 5739 5739 5737 5738 5738 5738 5736 5733 5724 5717 5719 5726 5729 5732 5731 5729 5726 5723 5721 5718 5716 5713 5711 5709 5706 5704 5702 5700 5698 5697 5695
5755 5753 5751 5750 5748 5747 5745 5744 5742 5741 5739 5738 5737 5736 5735 5734 5734 5735 5733 5731 5728 5721 5717 5722 5723 5725 5725 5723 5720 5718 5716 5713 5710 5708 5705 5703 5701 5698 5696 5695 5693 5691 5689
5752 5750 5749 5747 5746 5745 5744 5742 5740 5738 5736 5734 5734 5732 5731 5731 5729 5729 5728 5726 5724 5721 5714 5717 5719 5719 5717 5715 5713 5711 5709 5707 5703 5701 5698 5696 5694 5692 5689 5687 5685 5683 5682
5749 5748 5746 5744 5743 5742 5741 5739 5736 5735 5733 5731 5730 5729 5727 5727 5725 5723 5721 5720 5719 5718 5713 5709 5709 5709 5707 5707 5705 5703 5702 5699 5696 5694 5691 5687 5685 5682 5680 5678 5676 5674 5673
5746 5745 5743 5741 5739 5738 5737 5735 5733 5732 5730 5727 5726 5724 5722 5721 5718 5717 5715 5714 5713 5712 5710 5705 5702 5701 5700 5699 5696 5694 5692 5689 5687 5684 5681 5677 5674 5672 5670 5667 5666 5664 5662
5743 5741 5739 5737 5736 5734 5733 5731 5729 5727 5725 5723 5721 5719 5717 5714 5712 5711 5709 5707 5706 5704 5702 5698 5695 5693 5691 5690 5687 5683 5680 5679 5676 5674 5670 5667 5664 5661 5658 5656 5654 5652 5651
5738 5736 5734 5733 5731 5729 5727 5725 5724 5722 5719 5717 5715 5713 5710 5707 5705 5703 5701 5698 5698 5696 5693 5690 5687 5684 5681 5678 5676 5675 5671 5668 5666 5663 5660 5657 5654 5650 5648 5645 5643 5640 5639
5732 5730 5728 5726 5724 5721 5719 5718 5717 5715 5712 5710 5707 5705 5703 5699 5697 5694 5691 5689 5688 5685 5683 5680 5677 5673 5670 5669 5668 5666 5662 5659 5655 5654 5650 5646 5643 5640 5636 5634 5631 5629 5627
5726 5723 5721 5718 5715 5712 5711 5710 5709 5707 5704 5702 5699 5696 5694 5691 5688 5685 5682 5680 5677 5675 5673 5670 5666 5662 5659 5658 5657 5655 5653 5650 5646 5643 5640 5635 5633 5628 5625 5621 5619 5616 5614
5719 5716 5713 5711 5708 5704 5703 5702 5701 5698 5695 5692 5689 5686 5683 5681 5679 5676 5673 5669 5666 5662 5661 5658 5655 5651 5650 5649 5648 5646 5644 5640 5636 5632 5631 5625 5620 5616 5613 5609 5606 5603 5600
5711 5708 5705 5702 5699 5696 5694 5693 5693 5690 5686 5682 5678 5675 5673 5670 5667 5666 5663 5659 5656 5651 5649 5647 5644 5641 5639 5638 5636 5635 5632 5629 5623 5619 5616 5612 5607 5604 5600 5596 5593 5590 5587
5703 5700 5696 5693 5691 5687 5685 5684 5684 5682 5678 5673 5669 5665 5662 5659 5657 5655 5652 5649 5645 5642 5639 5637 5634 5631 5628 5626 5624 5622 5619 5616 5612 5606 5602 5599 5595 5592 5588 5585 5581 5577 5574